[[{"header":{"parameterUnit":"m.s-1","parameterCategory":1,"la1":30.2991,"la2":30.254,"lo1":-89.0895,"lo2":-89.0444,"dy":0.0017,"dx":0.0017,"nx":28,"ny":28,"refTime":"2024-07-13T21:00:00:Z","depth":0,"parameterNumber":2,"parameterNumberName":"U-component_of_WINDS"},"data":[0,0,0,0,0,0,0,0,0,0,0,0,0,0,0,0,0,0,0,0,0,0,0,0,0,0,0,0,0,0,0,0,0,0,0,0,0,0,0,0,0,0,0,0,0,0,0,0,0,0,0,0,0,0,0,0,0,0,0.7229,0.723,0,0.7319,0.732,0.7321,0.7292,0.729,0.7288,0.7286,0.7384,0.7388,0.7393,0,0,0,0,0,0,0,0,0,0,0,0,0,0.7038,0.7042,0.7229,0.723,0.7232,0.7319,0.732,0.7321,0.7292,0.729,0.7287,0.7285,0.7382,0.7388,0.7393,0,0,0,0,0,0,0,0,0,0,0,0,0,0.7124,0.7043,0.7229,0.7227,0.7228,0.7318,0.732,0.7321,0.7292,0.7289,0.7287,0.7284,0.7381,0.7387,0.7394,0.7493,0,0,0.7414,0.7417,0,0,0,0,0,0,0,0,0.7119,0.7131,0.7226,0.7228,0.7229,0.7291,0.7288,0.7379,0.7293,0.7268,0.7286,0.7282,0.7356,0.7364,0.7388,0.7498,0.7502,0.7415,0.7419,0.7422,0.7423,0,0,0,0,0,0,0,0.7113,0.7127,0.7265,0.7228,0.7229,0.7224,0.7233,0.7306,0.7328,0.727,0.7268,0.7279,0.7356,0.7381,0.739,0.7504,0.7414,0.742,0.7424,0.7427,0.7699,0.7702,0,0,0,0,0,0,0.7106,0.7122,0.7262,0.7268,0.7165,0.7229,0.7239,0.7274,0.7327,0.7332,0.7281,0.7277,0.7371,0.7382,0.7393,0.7513,0.7421,0.7428,0.7432,0.7696,0.77,0.7704,0,0,0,0,0,0,0.7102,0.7119,0.7258,0.7194,0.7212,0.7236,0.7275,0.7277,0.7303,0.7335,0.7339,0.7303,0.737,0.7384,0.7468,0.7516,0.7431,0.7437,0.7692,0.7697,0.7702,0.7753,0,0,0,0,0,0,0.7097,0.7117,0.7154,0.7195,0.7215,0.7331,0.7278,0.7281,0.7313,0.7309,0.7356,0.7362,0.7368,0.7458,0.7475,0.7524,0.7442,0.7688,0.7695,0.77,0.7748,0.7759,0.777,0,0,0,0,0,0.709,0.7167,0.7156,0.7173,0.7262,0.7333,0.7345,0.7349,0.7317,0.7356,0.7376,0.736,0.7508,0.7467,0.7485,0.7537,0.7685,0.7693,0.77,0.7743,0.7757,0.7769,0,0,0,0,0,0,0.7134,0.7172,0.7161,0.7253,0.729,0.7328,0.7377,0.7365,0.7413,0.7407,0.7412,0.7423,0.7509,0.7532,0.7486,0.7636,0.7592,0.7603,0.7618,0.7632,0.7643,0.7637,0.7447,0,0,0,0,0,0.7153,0.7207,0.7238,0.7317,0.7335,0.7353,0.7384,0.7384,0.7423,0.7439,0.7466,0.7506,0.7561,0.7598,0.7651,0.775,0.776,0.7795,0.7805,0.7814,0.7825,0.7879,0.7894,0.7728,0.7728,0.7727,0,0,0.7196,0.7224,0.7258,0.7326,0.7354,0.7411,0.7366,0.7428,0.747,0.7449,0.753,0.7551,0.7596,0.7688,0.773,0.7709,0.7872,0.7824,0.783,0.7836,0.7888,0.7904,0.7918,0.7733,0.7732,0.7731,0,0,0.7303,0.7329,0.7397,0.7425,0.7468,0.7478,0.7494,0.7534,0.7547,0.7627,0.7612,0.7663,0.7758,0.7791,0.782,0.7937,0.7924,0.7954,0.8012,0.8065,0.8078,0.809,0.8132,0.8147,0.7964,0.7964,0.7964,0,0.7351,0.7434,0.7434,0.7496,0.7527,0.7507,0.7577,0.7605,0.7664,0.7687,0.7661,0.7779,0.7809,0.7908,0.7936,0.796,0.798,0.7949,0.8075,0.8087,0.8098,0.8139,0.8154,0.7967,0.7967,0.7966,0.7966,0,0.7491,0.7549,0.7599,0.7653,0.7689,0.7755,0.7766,0.7804,0.78,0.7813,0.7896,0.7929,0.7988,0.8011,0.801,0.8111,0.8096,0.8073,0.803,0.8117,0.8155,0.8171,0.7972,0.7971,0.797,0.7969,0,0,0.763,0.7681,0.77,0.7724,0.7768,0.7814,0.7879,0.7934,0.7966,0.8006,0.8062,0.8142,0.812,0.8153,0.8155,0.8201,0.8291,0.8172,0.8173,0.8194,0.8405,0.8422,0.844,0.8282,0.8285,0.8288,0.8401,0,0.7741,0.7853,0.7854,0.7958,0.8011,0.7992,0.8049,0.8083,0.8098,0.8146,0.8163,0.8219,0.8186,0.8206,0.825,0.8271,0.8334,0.8262,0.8336,0.8338,0.8326,0.846,0.8479,0.8585,0.8416,0.8419,0.842,0,0.7885,0.7928,0.8036,0.8072,0.8094,0.8145,0.8195,0.8241,0.828,0.8287,0.8323,0.8317,0.8384,0.8337,0.8431,0.8382,0.8412,0.8426,0.843,0.8438,0.8385,0.8472,0.8618,0.8635,0.8444,0.8442,0.844,0,0.7976,0.8061,0.8136,0.8157,0.8201,0.8237,0.8257,0.8292,0.8325,0.8369,0.8391,0.8443,0.8472,0.8514,0.8522,0.8487,0.8616,0.857,0.8625,0.8625,0.8655,0.8653,0.8809,0.8672,0.8672,0.8672,0.8672,0,0.81,0.8168,0.8177,0.8224,0.8299,0.83,0.8374,0.8392,0.8423,0.8474,0.8462,0.851,0.8518,0.8568,0.8576,0.8652,0.8666,0.8674,0.8676,0.8676,0.8675,0.8696,0.869,0.8676,0.8675,0.8674,0.8674,0,0.8215,0.8224,0.8305,0.8339,0.8349,0.8402,0.8432,0.8477,0.8489,0.8553,0.8569,0.8588,0.8647,0.8658,0.8729,0.8734,0.8825,0.8819,0.8811,0.8811,0.8866,0.8861,0.9042,0.9066,0.8913,0.8914,0.8916,0,0.8294,0.8345,0.8383,0.8415,0.8436,0.8488,0.852,0.8523,0.8558,0.8604,0.8644,0.8701,0.8746,0.8841,0.8863,0.8916,0.8912,0.8971,0.892,0.8918,0.8913,0.891,0.8916,0.8982,0.8983,0.8985,0.8986,0,0.8434,0.8435,0.8481,0.8529,0.8567,0.8606,0.8642,0.867,0.8677,0.8717,0.8775,0.881,0.888,0.8937,0.899,0.9013,0.9001,0.9001,0.9017,0.9018,0.9012,0.9017,0.8839,0.8998,0.8996,0.8995,0.8995,0.8994,0.8534,0.8578,0.8611,0.8663,0.8689,0.8723,0.8767,0.8783,0.8831,0.8887,0.8886,0.895,0.8987,0.9056,0.9081,0.9133,0.9114,0.9137,0.9143,0.9149,0.9154,0.9003,0.9142,0.9142,0.9142,0.9141,0.9141,0,0.8673,0.8692,0.874,0.879,0.8831,0.8813,0.8852,0.8888,0.8944,0.8978,0.9022,0.9089,0.9144,0.9168,0.9222,0.9258,0.9255,0.9273,0.9271,0.9276,0.9167,0.9148,0.9275,0.9275,0.9275,0.9275,0.9275,0.9275,0.875,0.8823,0.8829,0.8916,0.8935,0.8996,0.902,0.9051,0.9078,0.9153,0.9197,0.9212,0.9243,0.9298,0.9348,0.9354,0.9375,0.9395,0.9399,0.9297,0.9284,0.9271,0.9253,0.94,0.94,0.9504,0.9505,0.9505]},{"header":{"parameterUnit":"m.s-1","parameterCategory":1,"la1":30.2991,"la2":30.254,"lo1":-89.0895,"lo2":-89.0444,"dy":0.0017,"dx":0.0017,"nx":28,"ny":28,"refTime":"2024-07-13T21:00:00:Z","depth":0,"parameterNumber":3,"parameterNumberName":"V-component_of_WINDS"},"data":[0,0,0,0,0,0,0,0,0,0,0,0,0,0,0,0,0,0,0,0,0,0,0,0,0,0,0,0,0,0,0,0,0,0,0,0,0,0,0,0,0,0,0,0,0,0,0,0,0,0,0,0,0,0,0,0,0,0,2.9228,2.9229,0,2.9236,2.9236,2.9237,2.9264,2.9264,2.9265,2.9265,2.9271,2.927,2.927,0,0,0,0,0,0,0,0,0,0,0,0,0,2.9233,2.9233,2.9228,2.9229,2.9229,2.9236,2.9236,2.9237,2.9263,2.9264,2.9265,2.9266,2.9271,2.927,2.927,0,0,0,0,0,0,0,0,0,0,0,0,0,2.9235,2.9233,2.9228,2.9243,2.9244,2.9236,2.9236,2.9237,2.9263,2.9264,2.9265,2.9266,2.9271,2.927,2.927,2.9247,0,0,2.9268,2.9267,0,0,0,0,0,0,0,0,2.9235,2.9235,2.9241,2.9242,2.9244,2.925,2.924,2.924,2.9263,2.9256,2.9265,2.9266,2.9263,2.9263,2.9262,2.9247,2.9248,2.9268,2.9267,2.9267,2.9267,0,0,0,0,0,0,0,2.9235,2.9234,2.9232,2.9241,2.9243,2.9248,2.9249,2.924,2.9254,2.9257,2.9259,2.9259,2.9264,2.9263,2.9263,2.9248,2.9268,2.9267,2.9267,2.9266,2.9212,2.9211,0,0,0,0,0,0,2.9233,2.9234,2.9231,2.9232,2.9241,2.9247,2.9249,2.9247,2.9254,2.9256,2.9259,2.9261,2.9263,2.9263,2.9263,2.9235,2.9267,2.9266,2.9266,2.9213,2.9212,2.9211,0,0,0,0,0,0,2.9233,2.9232,2.9231,2.9233,2.9234,2.9246,2.9244,2.9247,2.9246,2.9256,2.9258,2.9255,2.9264,2.9264,2.925,2.9236,2.9266,2.9265,2.9214,2.9213,2.9211,2.9181,0,0,0,0,0,0,2.9233,2.9232,2.9225,2.9233,2.9234,2.9219,2.9243,2.9246,2.9245,2.9248,2.9253,2.9255,2.9265,2.9251,2.925,2.9235,2.9265,2.9216,2.9214,2.9212,2.9183,2.9178,2.9174,0,0,0,0,0,2.9233,2.9216,2.9224,2.9224,2.9225,2.9219,2.9219,2.9231,2.9244,2.9235,2.9242,2.9255,2.9238,2.925,2.9248,2.9233,2.9217,2.9214,2.9212,2.9185,2.9179,2.9174,0,0,0,0,0,0,2.9204,2.9217,2.9227,2.9212,2.9214,2.9223,2.9213,2.9225,2.9223,2.9225,2.924,2.9241,2.9225,2.9228,2.9241,2.9211,2.9229,2.9227,2.9209,2.9204,2.9199,2.9198,2.9264,0,0,0,0,0,2.9196,2.9192,2.9203,2.9188,2.9189,2.9201,2.9199,2.9208,2.9211,2.9211,2.9217,2.9218,2.9212,2.9209,2.9204,2.9184,2.9184,2.9173,2.9168,2.9165,2.9162,2.9148,2.9143,2.9203,2.9203,2.9203,0,0,2.918,2.9186,2.9182,2.9183,2.9186,2.9179,2.9202,2.9194,2.9188,2.921,2.9197,2.9201,2.9203,2.9186,2.9178,2.9188,2.9145,2.9162,2.9159,2.9158,2.9145,2.914,2.9135,2.9201,2.9202,2.9202,0,0,2.9146,2.9151,2.9139,2.9141,2.9145,2.9153,2.915,2.9157,2.9161,2.9149,2.9164,2.9157,2.9149,2.9148,2.9147,2.9112,2.9123,2.911,2.9086,2.9073,2.9068,2.9064,2.9049,2.9044,2.9107,2.9107,2.9107,0,2.9124,2.9116,2.9131,2.9121,2.912,2.914,2.9127,2.9128,2.913,2.9128,2.9139,2.9127,2.913,2.9112,2.9103,2.9102,2.9097,2.9109,2.9068,2.9064,2.906,2.9046,2.9041,2.9105,2.9106,2.9106,2.9106,0,2.9088,2.9081,2.9071,2.9073,2.9071,2.9059,2.9071,2.9067,2.9076,2.9082,2.9068,2.9073,2.9069,2.9065,2.9074,2.9047,2.9053,2.9066,2.9084,2.9053,2.9039,2.9034,2.9103,2.9104,2.9104,2.9104,0,0,2.9035,2.9045,2.9041,2.9041,2.9047,2.9041,2.903,2.9027,2.9022,2.9023,2.9012,2.9004,2.9015,2.9014,2.9023,2.9012,2.8981,2.9026,2.9026,2.9015,2.8948,2.8937,2.8931,2.8989,2.8988,2.8987,2.8947,0,2.9001,2.8984,2.8996,2.8976,2.8969,2.8987,2.8977,2.8979,2.8984,2.8978,2.8983,2.8976,2.8993,2.8992,2.8982,2.8987,2.8967,2.899,2.8977,2.8976,2.8974,2.8924,2.8913,2.8875,2.8942,2.8942,2.8941,0,2.8959,2.8958,2.8937,2.8942,2.8939,2.893,2.8927,2.8922,2.8923,2.8928,2.8925,2.8937,2.8924,2.8944,2.8926,2.8941,2.8936,2.8938,2.8936,2.8934,2.8955,2.8918,2.8864,2.8857,2.8934,2.8934,2.8935,0,2.892,2.8913,2.8899,2.8899,2.8906,2.8898,2.8901,2.8903,2.89,2.8897,2.8894,2.889,2.8887,2.8882,2.8891,2.8905,2.8871,2.8892,2.8872,2.8871,2.8863,2.8863,2.8804,2.8863,2.8863,2.8863,2.8863,0,2.8879,2.8865,2.8882,2.8873,2.8857,2.8871,2.8854,2.8858,2.886,2.8851,2.8867,2.8857,2.8871,2.8863,2.887,2.8852,2.8851,2.8853,2.8854,2.885,2.8849,2.8846,2.8848,2.8862,2.8862,2.8862,2.8863,0,2.8832,2.8843,2.8829,2.8836,2.8838,2.8825,2.8831,2.8822,2.8828,2.8816,2.8814,2.8824,2.8814,2.8823,2.8815,2.8819,2.8795,2.8801,2.8795,2.8796,2.8775,2.8775,2.871,2.8701,2.8768,2.8767,2.8767,0,2.8805,2.8794,2.88,2.8796,2.8797,2.879,2.8787,2.88,2.8795,2.8795,2.8785,2.8778,2.8772,2.8756,2.8761,2.8754,2.8759,2.8737,2.8758,2.8753,2.8756,2.8755,2.8753,2.8732,2.8731,2.873,2.873,0,2.8754,2.8759,2.8755,2.8751,2.8747,2.8744,2.8743,2.8738,2.8752,2.8745,2.8737,2.8732,2.8723,2.8714,2.8709,2.8709,2.872,2.8723,2.8718,2.8712,2.8708,2.8707,2.878,2.8724,2.8725,2.8725,2.8725,2.8726,2.8714,2.8705,2.8707,2.8701,2.8701,2.87,2.8691,2.8696,2.869,2.8684,2.8692,2.868,2.868,2.8673,2.8672,2.8662,2.8671,2.8664,2.8662,2.8659,2.8655,2.8711,2.8661,2.8661,2.8661,2.8662,2.8662,0,2.8662,2.8665,2.8659,2.8656,2.865,2.8664,2.8662,2.8656,2.8646,2.8645,2.8639,2.8628,2.8619,2.8623,2.8615,2.8606,2.8611,2.8603,2.8603,2.8602,2.8648,2.8653,2.8599,2.8599,2.8599,2.8599,2.8599,2.8599,2.8634,2.8618,2.8624,2.8608,2.861,2.86,2.8598,2.8595,2.8594,2.8581,2.8574,2.8578,2.8578,2.857,2.8562,2.8563,2.8558,2.8548,2.8551,2.8593,2.8599,2.8605,2.8609,2.8547,2.8547,2.8505,2.8505,2.8504]}]]